Location: Boulin
(43.2500°N, 0.1333°E)
Time: 03:19:40
(UTC+00:00)

Cosmos 2227 Rocket - Pass Details

Date: 11 December 2025
Orbit: 838 x 843 km, 71.0° (Epoch: 12 January)

Event Time Altitude Azimuth Distance (km) Brightness Sun altitude
Rises 18:37:21 0° 327° (NNW) 3,401 5.6 -23.4°
Reaches altitude 10° 18:39:57 10° 320° (NW) 2,463 5.0 -23.9°
Maximum altitude 18:45:05 37° 255° (WSW) 1,286 3.7 -24.8°
Drops below altitude 10° 18:50:12 10° 189° (S) 2,451 4.8 -25.7°
Sets 18:52:47 0° 181° (S) 3,382 5.4 -26.2°
